EW9485 Weather Reports


Display with metric or nautical units.
time (UTC)temp
F
wind
direction
speed
MPH
gust
MPH
rain 1hr
in
rain 24hr
in
rain mn
in
humidity
%
barometer
mb
20260506045048 71 165 1.0 5.0 0.00 0.00 0.00 90 1015.2
20260506044601 71 0 0.0 6.0 0.00 0.00 0.00 90 1015.3
20260506044048 71 166 2.0 6.0 0.00 0.00 0.00 89 1015.3
20260506043549 71 153 2.0 6.0 0.00 0.00 0.00 89 1015.4
20260506043047 71 162 2.0 7.0 0.00 0.00 0.00 89 1015.6
20260506042548 71 163 2.0 7.0 0.00 0.00 0.00 89 1015.6
20260506042050 71 163 2.0 5.0 0.00 0.00 0.00 89 1015.6
20260506041604 71 161 2.0 7.0 0.00 0.00 0.00 89 1015.6
20260506041047 71 170 3.0 7.0 0.00 0.00 0.00 89 1015.5
20260506040545 71 153 2.0 7.0 0.00 0.00 0.00 89 1015.7
20260506040054 71 165 2.0 7.0 0.00 0.00 0.00 89 1015.8
20260506035549 71 165 2.0 6.0 0.00 0.00 0.00 89 1015.7
20260506035047 71 169 2.0 6.0 0.00 0.00 0.00 89 1015.8
20260506034554 71 163 1.0 7.0 0.00 0.00 0.00 88 1015.7
20260506034046 71 163 3.0 7.0 0.00 0.00 0.00 88 1015.7
20260506033551 71 155 1.0 6.0 0.00 0.00 0.00 88 1015.6
20260506033051 71 160 1.0 6.0 0.00 0.00 0.00 88 1015.6
20260506032548 71 153 2.0 6.0 0.00 0.00 0.00 88 1015.6
20260506032047 71 155 2.0 7.0 0.00 0.00 0.00 88 1015.7
20260506031555 72 150 2.0 7.0 0.00 0.00 0.00 88 1015.6
20260506031050 72 157 2.0 7.0 0.00 0.00 0.00 88 1015.7
20260506030552 72 173 1.0 9.0 0.00 0.00 0.00 88 1015.7
20260506030051 72 149 2.0 9.0 0.00 0.00 0.00 88 1015.6
20260506025549 72 136 2.0 8.0 0.00 0.00 0.00 87 1015.7
20260506025045 72 181 3.0 8.0 0.00 0.00 0.00 87 1015.8
20260506024550 72 0 3.0 8.0 0.00 0.00 0.00 87 1015.6
20260506024048 72 170 2.0 8.0 0.00 0.00 0.00 87 1015.6
20260506023551 72 165 3.0 8.0 0.00 0.00 0.00 87 1015.6
20260506023051 72 167 4.0 8.0 0.00 0.00 0.00 87 1015.5
20260506022547 72 161 4.0 8.0 0.00 0.00 0.00 87 1015.3
20260506022048 72 163 3.0 7.0 0.00 0.00 0.00 86 1015.4
20260506021556 72 0 3.0 8.0 0.00 0.00 0.00 86 1015.4
20260506021045 72 169 2.0 10.0 0.00 0.00 0.00 86 1015.4
20260506020547 72 159 4.0 10.0 0.00 0.00 0.00 86 1015.7
20260506020048 72 162 3.0 10.0 0.00 0.00 0.00 86 1015.6
20260506015552 72 174 2.0 8.0 0.00 0.00 0.00 85 1015.5
20260506015046 72 160 2.0 7.0 0.00 0.00 0.00 85 1015.6
20260506014557 72 149 2.0 7.0 0.00 0.00 0.00 85 1015.3
20260506014051 72 159 3.0 9.0 0.00 0.00 0.00 85 1015.1
20260506013547 72 167 2.0 9.0 0.00 0.00 0.00 85 1015.1
20260506013052 72 166 3.0 9.0 0.00 0.00 0.00 85 1015.1
20260506012545 72 174 4.0 8.0 0.00 0.00 0.00 85 1015.2
20260506012048 72 167 3.0 10.0 0.00 0.00 0.00 85 1015.2
20260506011551 72 160 4.0 10.0 0.00 0.00 0.00 85 1015.2
20260506011048 72 139 4.0 10.0 0.00 0.00 0.00 84 1014.9
20260506010550 72 152 5.0 10.0 0.00 0.00 0.00 84 1015.0
20260506010057 72 165 4.0 13.0 0.00 0.00 0.00 84 1015.0
20260506005547 72 150 4.0 13.0 0.00 0.00 0.00 84 1014.9
20260506005046 72 171 5.0 10.0 0.00 0.00 0.00 84 1014.7
20260506004600 72 162 4.0 10.0 0.00 0.00 0.00 83 1014.8
20260506004047 72 163 4.0 10.0 0.00 0.00 0.00 83 1015.0
20260506003547 73 173 5.0 14.0 0.00 0.00 0.00 83 1014.7
20260506003047 73 176 6.0 14.0 0.00 0.00 0.00 83 1014.7
20260506002548 73 169 6.0 14.0 0.00 0.00 0.00 82 1014.7
20260506002048 73 150 6.0 11.0 0.00 0.00 0.00 82 1014.7
20260506001609 73 141 5.0 15.0 0.00 0.00 0.00 82 1014.6
20260506001046 73 175 7.0 16.0 0.00 0.00 0.00 81 1014.6
20260506000548 73 130 5.0 16.0 0.00 0.00 0.00 81 1014.5
20260506000051 73 146 6.0 14.0 0.00 0.00 0.00 81 1014.6
20260505235548 74 150 6.0 14.0 0.00 0.00 0.00 80 1014.7
20260505235048 74 157 5.0 14.0 0.00 0.00 0.00 79 1014.7
20260505234554 74 174 6.0 15.0 0.00 0.00 0.00 79 1014.6
20260505234049 74 177 6.0 15.0 0.00 0.00 0.00 78 1014.7
20260505233549 74 173 7.0 15.0 0.00 0.00 0.00 77 1014.8
20260505233058 75 170 7.0 15.0 0.00 0.00 0.00 75 1014.8
20260505232543 75 178 8.0 15.0 0.00 0.00 0.00 73 1014.8
20260505232043 76 165 8.0 14.0 0.00 0.00 0.00 72 1014.7
20260505231555 76 200 7.0 15.0 0.00 0.00 0.00 70 1014.6
20260505231046 76 191 7.0 15.0 0.00 0.00 0.00 69 1014.7
20260505230544 76 161 7.0 17.0 0.00 0.00 0.00 67 1014.7
20260505230049 76 141 8.0 17.0 0.00 0.00 0.00 69 1014.7
20260505225542 77 169 8.0 14.0 0.00 0.00 0.00 66 1014.7
20260505225046 77 192 7.0 14.0 0.00 0.00 0.00 67 1014.7
20260505224552 77 150 7.0 14.0 0.00 0.00 0.00 62 1014.9
20260505224042 77 172 7.0 16.0 0.00 0.00 0.00 61 1014.7
20260505223542 77 163 7.0 18.0 0.00 0.00 0.00 59 1014.8
20260505223059 78 144 9.0 18.0 0.00 0.00 0.00 56 1014.7
20260505222542 78 186 7.0 14.0 0.00 0.00 0.00 60 1014.7
20260505222042 78 167 8.0 14.0 0.00 0.00 0.00 60 1014.8
20260505221553 79 140 6.0 15.0 0.00 0.00 0.00 58 1014.9
20260505221044 79 186 6.0 19.0 0.00 0.00 0.00 56 1014.7
20260505220545 78 212 9.0 20.0 0.00 0.00 0.00 56 1014.7
20260505220052 79 147 8.0 20.0 0.00 0.00 0.00 56 1014.6
20260505215542 79 187 8.0 16.0 0.00 0.00 0.00 55 1014.6
20260505215042 79 194 9.0 19.0 0.00 0.00 0.00 58 1014.6
20260505214600 79 179 9.0 19.0 0.00 0.00 0.00 63 1014.7
20260505214045 79 186 6.0 16.0 0.00 0.00 0.00 65 1014.7
20260505213542 79 153 8.0 16.0 0.00 0.00 0.00 63 1014.7
20260505213059 79 161 7.0 17.0 0.00 0.00 0.00 60 1014.7
20260505212542 80 167 8.0 17.0 0.00 0.00 0.00 59 1014.9
20260505212042 79 179 8.0 16.0 0.00 0.00 0.00 57 1014.9
20260505211602 80 178 7.0 15.0 0.00 0.00 0.00 57 1015.0
20260505211041 80 155 8.0 15.0 0.00 0.00 0.00 59 1014.9
20260505210541 80 204 7.0 14.0 0.00 0.00 0.00 55 1014.8
20260505210105 80 174 8.0 14.0 0.00 0.00 0.00 54 1014.9
20260505205542 80 151 8.0 17.0 0.00 0.00 0.00 55 1014.7
20260505205041 81 153 6.0 17.0 0.00 0.00 0.00 54 1014.7
20260505204553 80 184 8.0 17.0 0.00 0.00 0.00 52 1014.8
20260505204042 81 184 7.0 15.0 0.00 0.00 0.00 52 1014.9
20260505203541 81 156 7.0 14.0 0.00 0.00 0.00 54 1014.9
20260505203053 81 173 6.0 16.0 0.00 0.00 0.00 53 1015.0
20260505202615 80 197 9.0 17.0 0.00 0.00 0.00 54 1015.0
20260505202051 81 175 8.0 17.0 0.00 0.00 0.00 53 1015.2
20260505201606 82 198 5.0 15.0 0.00 0.00 0.00 54 1015.2
20260505201048 80 159 8.0 15.0 0.00 0.00 0.00 53 1015.3
20260505200545 81 169 8.0 15.0 0.00 0.00 0.00 52 1015.4
20260505200053 81 171 7.0 16.0 0.00 0.00 0.00 53 1015.2
20260505195548 82 208 8.0 16.0 0.00 0.00 0.00 52 1015.4
20260505195051 82 166 6.0 16.0 0.00 0.00 0.00 52 1015.4
20260505194555 82 160 8.0 16.0 0.00 0.00 0.00 51 1015.3
20260505194045 82 161 7.0 15.0 0.00 0.00 0.00 51 1015.4
20260505193548 82 181 6.0 15.0 0.00 0.00 0.00 52 1015.5
20260505193054 82 174 7.0 15.0 0.00 0.00 0.00 50 1015.4
20260505192551 83 171 6.0 14.0 0.00 0.00 0.00 49 1015.5
20260505192048 82 159 8.0 15.0 0.00 0.00 0.00 49 1015.6
20260505191556 83 200 7.0 15.0 0.00 0.00 0.00 49 1015.7
20260505191050 82 195 7.0 13.0 0.00 0.00 0.00 49 1015.7
20260505190548 83 167 6.0 12.0 0.00 0.00 0.00 48 1015.8
20260505190104 83 198 7.0 12.0 0.00 0.00 0.00 49 1015.8
20260505185544 82 186 7.0 12.0 0.00 0.00 0.00 51 1015.9
20260505185046 82 177 6.0 18.0 0.00 0.00 0.00 50 1015.8
20260505184601 82 180 7.0 18.0 0.00 0.00 0.00 52 1016.0
20260505184047 82 188 6.0 14.0 0.00 0.00 0.00 52 1015.9
20260505183545 82 181 6.0 14.0 0.00 0.00 0.00 53 1015.9
20260505183054 82 174 6.0 14.0 0.00 0.00 0.00 51 1015.8
20260505182545 82 167 7.0 14.0 0.00 0.00 0.00 51 1015.8
20260505182052 83 174 6.0 15.0 0.00 0.00 0.00 53 1015.9
20260505181553 82 171 7.0 15.0 0.00 0.00 0.00 54 1016.0
20260505181050 81 169 7.0 14.0 0.00 0.00 0.00 52 1016.1
20260505180544 81 181 6.0 13.0 0.00 0.00 0.00 53 1016.1
20260505180056 80 159 6.0 13.0 0.00 0.00 0.00 53 1016.1
20260505175547 80 200 8.0 13.0 0.00 0.00 0.00 53 1016.1
20260505175047 82 166 5.0 14.0 0.00 0.00 0.00 52 1016.1
20260505174554 82 140 6.0 14.0 0.00 0.00 0.00 54 1016.1
20260505174046 81 171 6.0 15.0 0.00 0.00 0.00 53 1016.2
20260505173546 80 217 7.0 15.0 0.00 0.00 0.00 54 1016.3
20260505173051 79 183 6.0 18.0 0.00 0.00 0.00 53 1016.3
20260505172547 81 159 7.0 18.0 0.00 0.00 0.00 52 1016.3
20260505172045 81 177 7.0 15.0 0.00 0.00 0.00 52 1016.3
20260505171555 80 184 7.0 15.0 0.00 0.00 0.00 53 1016.4
20260505171051 80 170 7.0 14.0 0.00 0.00 0.00 57 1016.4
20260505170545 80 148 3.0 9.0 0.00 0.00 0.00 54 1016.4
20260505170105 79 177 4.0 11.0 0.00 0.00 0.00 54 1016.3
20260505165548 79 156 5.0 11.0 0.00 0.00 0.00 52 1016.4
20260505165045 79 195 5.0 11.0 0.00 0.00 0.00 52 1016.4
20260505164558 79 163 5.0 10.0 0.00 0.00 0.00 52 1016.2
20260505164045 80 157 3.0 11.0 0.00 0.00 0.00 51 1016.3
20260505163550 80 137 4.0 14.0 0.00 0.00 0.00 54 1016.2
20260505163102 79 155 3.0 14.0 0.00 0.00 0.00 50 1016.1
20260505162547 80 155 6.0 13.0 0.00 0.00 0.00 48 1016.0
20260505162045 80 154 5.0 14.0 0.00 0.00 0.00 50 1016.1
20260505161555 80 165 6.0 14.0 0.00 0.00 0.00 54 1016.2
20260505161049 80 167 5.0 11.0 0.00 0.00 0.00 51 1016.1
20260505160547 80 140 4.0 11.0 0.00 0.00 0.00 52 1016.1
20260505153109 77 116 4.0 12.0 0.00 0.00 0.00 52 1016.3
20260505152547 77 163 6.0 12.0 0.00 0.00 0.00 55 1016.2
20260505152048 77 126 4.0 12.0 0.00 0.00 0.00 54 1016.2
20260505151554 76 152 5.0 12.0 0.00 0.00 0.00 53 1016.3
20260505151047 77 117 5.0 10.0 0.00 0.00 0.00 57 1016.3
20260505150549 76 150 3.0 10.0 0.00 0.00 0.00 56 1016.2
20260505150111 76 116 5.0 12.0 0.00 0.00 0.00 56 1016.1
20260505140545 72 126 4.0 11.0 0.00 0.00 0.00 64 1015.9
20260505140107 72 150 4.0 9.0 0.00 0.00 0.00 66 1015.8
20260505124604 63 92 3.0 8.0 0.00 0.00 0.00 79 1015.9
20260505124045 63 71 4.0 8.0 0.00 0.00 0.00 80 1015.9
20260505123544 63 113 2.0 6.0 0.00 0.00 0.00 81 1015.9
20260505123108 62 84 2.0 4.0 0.00 0.00 0.00 81 1015.8
20260505122543 62 117 0.0 6.0 0.00 0.00 0.00 81 1015.8
20260505122043 62 0 1.0 6.0 0.00 0.00 0.00 82 1015.7
20260505121556 61 92 1.0 6.0 0.00 0.00 0.00 82 1015.9
20260505121044 61 94 1.0 7.0 0.00 0.00 0.00 83 1015.9
20260505120544 60 94 2.0 7.0 0.00 0.00 0.00 83 1015.8
20260505120053 60 91 2.0 7.0 0.00 0.00 0.00 84 1015.8
20260505115547 59 57 2.0 7.0 0.00 0.00 0.00 84 1015.7
20260505115042 59 84 2.0 7.0 0.00 0.00 0.00 84 1015.7
20260505114559 59 86 3.0 7.0 0.00 0.00 0.00 85 1015.6
20260505114045 58 82 3.0 7.0 0.00 0.00 0.00 85 1015.5
20260505113541 58 83 3.0 7.0 0.00 0.00 0.00 85 1015.5
20260505113052 58 76 3.0 7.0 0.00 0.00 0.00 85 1015.4
20260505112545 57 81 2.0 9.0 0.00 0.00 0.00 85 1015.4
20260505112042 57 87 3.0 9.0 0.00 0.00 0.00 86 1015.4
20260505111600 57 89 4.0 8.0 0.00 0.00 0.00 86 1015.3
20260505111047 57 94 4.0 8.0 0.00 0.00 0.00 85 1015.2
20260505110546 57 102 3.0 8.0 0.00 0.00 0.00 85 1015.3
20260505102048 58 96 4.0 8.0 0.00 0.00 0.00 86 1015.2
20260505101552 58 83 3.0 9.0 0.00 0.00 0.00 86 1015.3
20260505101048 58 92 3.0 9.0 0.00 0.00 0.00 86 1015.2
20260505100547 57 94 4.0 9.0 0.00 0.00 0.00 87 1015.2
20260505100104 57 77 4.0 9.0 0.00 0.00 0.00 87 1015.1
20260505095550 57 106 3.0 9.0 0.00 0.00 0.00 87 1015.2
20260505095048 56 92 4.0 9.0 0.00 0.00 0.00 87 1015.2
20260505094550 56 98 3.0 7.0 0.00 0.00 0.00 87 1015.2
20260505094048 56 90 2.0 7.0 0.00 0.00 0.00 87 1014.9
20260505093548 56 92 3.0 7.0 0.00 0.00 0.00 87 1014.7
20260505093052 56 94 3.0 7.0 0.00 0.00 0.00 87 1014.4
20260505092547 56 94 3.0 6.0 0.00 0.00 0.00 87 1014.4
20260505092045 56 95 2.0 6.0 0.00 0.00 0.00 87 1014.4
20260505091551 56 100 2.0 6.0 0.00 0.00 0.00 87 1014.4
20260505091045 56 88 2.0 4.0 0.00 0.00 0.00 87 1014.3
20260505090545 56 97 2.0 4.0 0.00 0.00 0.00 87 1014.3
20260505090105 56 98 2.0 4.0 0.00 0.00 0.00 87 1014.4
20260505085548 56 103 2.0 3.0 0.00 0.00 0.00 87 1014.4
20260505085047 56 103 1.0 3.0 0.00 0.00 0.00 87 1014.4
20260505084551 56 104 1.0 3.0 0.00 0.00 0.00 87 1014.3
20260505084046 56 104 1.0 3.0 0.00 0.00 0.00 87 1014.2
20260505083545 56 104 1.0 3.0 0.00 0.00 0.00 87 1014.2
20260505083103 56 104 1.0 4.0 0.00 0.00 0.00 88 1014.1
20260505082545 55 105 2.0 4.0 0.00 0.00 0.00 88 1014.2
20260505082045 55 113 1.0 4.0 0.00 0.00 0.00 88 1014.1
20260505081552 55 113 2.0 4.0 0.00 0.00 0.00 88 1014.1
20260505081048 55 113 2.0 4.0 0.00 0.00 0.00 88 1014.1
20260505080548 55 119 1.0 4.0 0.00 0.00 0.00 88 1014.2
20260505080055 55 0 0.0 0.0 0.00 0.00 0.00 88 1014.1
20260505075545 55 0 0.0 0.0 0.00 0.00 0.00 87 1014.2
20260505075047 55 0 0.0 0.0 0.00 0.00 0.00 87 1014.2
20260505074550 55 0 0.0 0.0 0.00 0.00 0.00 87 1014.2
20260505074049 55 0 0.0 0.0 0.00 0.00 0.00 87 1014.3
20260505073548 55 0 0.0 0.0 0.00 0.00 0.00 87 1014.4
20260505073109 55 0 0.0 0.0 0.00 0.00 0.00 87 1014.2
20260505072546 55 0 0.0 0.0 0.00 0.00 0.00 86 1014.2
20260505072042 55 0 0.0 0.0 0.00 0.00 0.00 86 1014.4
20260505071557 56 0 0.0 0.0 0.00 0.00 0.00 86 1014.3
20260505071045 56 0 0.0 0.0 0.00 0.00 0.00 86 1014.4
20260505070545 56 0 0.0 0.0 0.00 0.00 0.00 86 1014.4
20260505065545 56 0 0.0 0.0 0.00 0.00 0.00 86 1014.4
20260505065046 56 0 0.0 0.0 0.00 0.00 0.00 86 1014.6
20260505064554 56 0 0.0 0.0 0.00 0.00 0.00 86 1014.6
20260505064047 57 0 0.0 0.0 0.00 0.00 0.00 86 1014.7
20260505063546 57 0 0.0 0.0 0.00 0.00 0.00 86 1014.7
20260505063059 56 0 0.0 0.0 0.00 0.00 0.00 86 1014.7
20260505062543 56 0 0.0 0.0 0.00 0.00 0.00 86 1014.9
20260505062043 57 0 0.0 0.0 0.00 0.00 0.00 86 1014.9
20260505061601 57 0 0.0 0.0 0.00 0.00 0.00 86 1015.1
20260505061044 57 0 0.0 0.0 0.00 0.00 0.00 86 1014.9
20260505060545 57 0 0.0 0.0 0.00 0.00 0.00 86 1014.8
20260505060058 57 0 0.0 0.0 0.00 0.00 0.00 86 1015.0
20260505055542 57 0 0.0 0.0 0.00 0.00 0.00 85 1014.9
20260505055045 57 0 0.0 0.0 0.00 0.00 0.00 85 1014.9
20260505054559 57 0 0.0 0.0 0.00 0.00 0.00 85 1014.9
20260505054046 57 0 0.0 0.0 0.00 0.00 0.00 85 1015.1
20260505053548 57 0 0.0 0.0 0.00 0.00 0.00 85 1015.0
20260505053058 57 0 0.0 0.0 0.00 0.00 0.00 85 1015.0
20260505052545 57 0 0.0 0.0 0.00 0.00 0.00 85 1015.0
20260505052045 58 0 0.0 0.0 0.00 0.00 0.00 85 1015.0
20260505051552 58 0 0.0 0.0 0.00 0.00 0.00 85 1015.1
20260505051043 58 0 0.0 0.0 0.00 0.00 0.00 84 1014.9
20260505050542 58 0 0.0 0.0 0.00 0.00 0.00 84 1015.0
20260505050126 58 0 0.0 0.0 0.00 0.00 0.00 84 1015.0